Cut Bank, MT

10:37 PM MST on December 12, 2017 (GMT -0700)
Cut Bank Municipal

Weather History for KCTB - November, 2012

Change the Weather History Date:

Sunday, November 4, 2012

  Actual Average Record
Temperature  
Mean Temperature 49 °F 35 °F  
Max Temperature 59 °F 46 °F 73 °F (1949)
Min Temperature 38 °F 24 °F -12 °F (2003)
Degree Days  
Heating Degree Days 16 30  
Month to date heating degree days 85 117  
Since 1 July heating degree days 1256 1341  
Cooling Degree Days 0 0  
Month to date cooling degree days 0 0  
Year to date cooling degree days 210 162  
Moisture  
Dew Point 37 °F    
Average Humidity 58    
Maximum Humidity 79    
Minimum Humidity 37    
Precipitation  
Precipitation 0.00 in 0.02 in 0.47 in (1958)
Month to date precipitation 0.00 0.05  
Year to date precipitation 8.25 10.37  
Snow  
Snow 0.00 in - - ()
Snow Depth 0.00 in    
Sea Level Pressure  
Sea Level Pressure 30.13 in    
Wind  
Wind Speed 15 mph (West)    
Max Wind Speed 36 mph    
Max Gust Speed 44 mph    
Visibility 10 miles    
Events      
T = Trace of Precipitation, MM = Missing Value Source: NWS Daily Summary

Daily Weather History Graph

Daily Weather History Graph

Search for Another Location

Airport or City:

Trip Planner

Search our weather history database for the weather conditions in past years. The results will help you decide how hot, cold, wet, or windy it might be!

Date:

Astronomy

Nov. 04, 2012 Rise Set
Actual Time 7:21 AM MST 5:04 PM MST
Civil Twilight 6:48 AM MST 5:37 PM MST
Nautical Twilight 6:10 AM MST 6:14 PM MST
Astronomical Twilight 5:34 AM MST 6:51 PM MST
Moon 9:41 PM MST (11/4) 12:12 PM MST (11/4)
Length of Visible Light 10h 49m
Length of Day
9h 42m
Waning Gibbous, 71% of the Moon is Illuminated
Nov 4
Waning Gibbous
Nov 6
Last Quarter
Nov 13
New
Nov 20
First Quarter
Nov 28
Full

Hourly Weather History & Observations

Time (MST) Temp. Windchill Dew Point Humidity Pressure Visibility Wind Dir Wind Speed Gust Speed Precip Events Conditions
12:56 AM 48.9 °F - 37.0 °F 64% 29.94 in 10.0 mi West 25.3 mph 34.5 mph N/A   Clear
1:56 AM 48.0 °F - 37.0 °F 66% 29.97 in 10.0 mi WSW 21.9 mph 27.6 mph N/A   Clear
1:56 AM 48.0 °F - 37.0 °F 66% 29.99 in 10.0 mi West 25.3 mph - N/A   Partly Cloudy
2:56 AM 48.0 °F - 37.9 °F 68% 30.03 in 10.0 mi West 21.9 mph 28.8 mph N/A   Partly Cloudy
3:56 AM 45.0 °F 38.9 °F 37.0 °F 74% 30.07 in 10.0 mi WNW 12.7 mph - N/A   Clear
4:56 AM 44.1 °F 38.6 °F 37.0 °F 76% 30.11 in 10.0 mi WNW 10.4 mph - N/A   Scattered Clouds
5:56 AM 39.0 °F 34.8 °F 34.0 °F 82% 30.15 in 10.0 mi WNW 5.8 mph - N/A   Scattered Clouds
6:56 AM 42.1 °F 39.2 °F 36.0 °F 79% 30.18 in 10.0 mi West 4.6 mph - N/A   Overcast
7:56 AM 43.0 °F - 36.0 °F 76% 30.21 in 10.0 mi Calm Calm - N/A   Overcast
8:56 AM 45.0 °F 43.5 °F 37.0 °F 74% 30.22 in 10.0 mi North 3.5 mph - N/A   Mostly Cloudy
9:56 AM 48.9 °F - 35.1 °F 59% 30.22 in 10.0 mi North 3.5 mph - N/A   Clear
10:56 AM 51.1 °F - 36.0 °F 56% 30.22 in 10.0 mi Calm Calm - N/A   Clear
11:56 AM 55.0 °F - 36.0 °F 49% 30.20 in 10.0 mi WSW 8.1 mph - N/A   Clear
12:56 PM 59.0 °F - 34.0 °F 39% 30.16 in 10.0 mi WSW 13.8 mph 21.9 mph N/A   Scattered Clouds
1:56 PM 59.0 °F - 35.1 °F 41% 30.15 in 10.0 mi SW 21.9 mph 26.5 mph N/A   Scattered Clouds
2:56 PM 55.9 °F - 36.0 °F 47% 30.16 in 10.0 mi WSW 17.3 mph 27.6 mph N/A   Clear
3:56 PM 53.1 °F - 37.0 °F 55% 30.19 in 10.0 mi WSW 18.4 mph - N/A   Clear
4:56 PM 50.0 °F - 37.9 °F 63% 30.19 in 10.0 mi WSW 13.8 mph - N/A   Clear
5:56 PM 50.0 °F - 37.9 °F 63% 30.19 in 10.0 mi WSW 12.7 mph - N/A   Clear
6:56 PM 51.1 °F - 39.0 °F 63% 30.17 in 10.0 mi West 17.3 mph 20.7 mph N/A   Clear
7:56 PM 52.0 °F - 39.0 °F 61% 30.15 in 10.0 mi WSW 18.4 mph - N/A   Clear
8:56 PM 53.1 °F - 39.0 °F 59% 30.15 in 10.0 mi WSW 20.7 mph 27.6 mph N/A   Clear
9:56 PM 55.0 °F - 39.9 °F 57% 30.10 in 10.0 mi WSW 35.7 mph 43.7 mph N/A   Clear
10:56 PM 54.0 °F - 39.9 °F 59% 30.09 in 10.0 mi WSW 27.6 mph 35.7 mph N/A   Clear